HB9KNR Weather Reports


Display with metric or nautical units.
time (UTC)temp
F
wind
direction
speed
MPH
gust
MPH
rain 1hr
in
rain 24hr
in
rain mn
in
humidity
%
barometer
mb
20260506174700 52 0.0 2.0 0.00 0.28 0.27 88 1008.9
20260506173517 52 0.0 1.0 0.00 0.28 0.27 88 1008.5
20260506172517 52 0.0 3.0 0.00 0.28 0.27 88 1008.5
20260506171517 52 0.0 1.0 0.00 0.28 0.27 88 1008.4
20260506170517 52 0.0 4.0 0.00 0.28 0.27 88 1008.0
20260506165537 52 0.0 3.0 0.00 0.28 0.27 89 1008.0
20260506164516 52 0.0 2.0 0.00 0.28 0.27 90 1008.0
20260506163517 52 0.0 2.0 0.00 0.28 0.27 89 1007.9
20260506162517 52 0.0 1.0 0.00 0.28 0.27 89 1007.9
20260506161537 52 0.0 2.0 0.00 0.28 0.27 89 1007.9
20260506160517 52 0.0 3.0 0.00 0.28 0.27 90 1007.8
20260506155517 52 293 1.0 7.0 0.00 0.28 0.27 90 1007.5
20260506154559 52 293 1.0 4.0 0.00 0.28 0.27 91 1007.5
20260506153537 52 0.0 4.0 0.00 0.28 0.27 92 1007.8
20260506152517 51 293 1.0 5.0 0.01 0.28 0.27 92 1007.9
20260506151517 51 0.0 0.0 0.02 0.28 0.27 92 1007.8
20260506150537 51 0.0 3.0 0.06 0.28 0.27 92 1007.9
20260506145516 51 293 1.0 4.0 0.11 0.28 0.27 91 1007.8
20260506144516 51 0.0 1.0 0.14 0.28 0.27 92 1007.7
20260506143516 51 293 1.0 5.0 0.19 0.28 0.27 92 1007.5
20260506142516 50 293 1.0 5.0 0.23 0.27 0.26 90 1007.4
20260506141537 51 0.0 3.0 0.25 0.26 0.25 89 1007.2
20260506140517 51 270 1.0 9.0 0.21 0.22 0.21 88 1007.3
20260506135517 52 293 1.0 4.0 0.16 0.17 0.16 86 1007.1
20260506134516 53 293 1.0 10.0 0.13 0.13 0.13 84 1006.7
20260506133516 54 293 2.0 9.0 0.08 0.09 0.08 81 1006.7
20260506132517 57 0.0 1.0 0.03 0.04 0.03 78 1006.8
20260506131537 60 0.0 1.0 0.00 0.01 0.00 75 1006.5
20260506130516 60 0.0 0.0 0.00 0.01 0.00 74 1006.1
20260506125537 60 0.0 0.0 0.00 0.01 0.00 73 1005.9
20260506124516 60 0.0 0.0 0.00 0.01 0.00 72 1005.7
20260506123517 59 0.0 0.0 0.00 0.01 0.00 72 1005.7
20260506122517 59 0.0 0.0 0.00 0.01 0.00 71 1005.6
20260506121517 59 0.0 0.0 0.00 0.01 0.00 75 1005.6
20260506120516 59 0.0 0.0 0.00 0.01 0.00 75 1005.7
20260506115556 59 0.0 0.0 0.00 0.01 0.00 74 1005.7
20260506114517 59 0.0 0.0 0.00 0.01 0.00 76 1005.7
20260506113516 59 0.0 0.0 0.00 0.01 0.00 77 1005.4
20260506112517 58 0.0 0.0 0.00 0.01 0.00 79 1005.4
20260506111536 58 0.0 0.0 0.00 0.01 0.00 80 1005.6
20260506110517 58 0.0 0.0 0.00 0.01 0.00 82 1005.8
20260506105516 58 0.0 0.0 0.00 0.01 0.00 83 1005.8
20260506104537 58 0.0 0.0 0.00 0.01 0.00 84 1005.9
20260506103516 57 0.0 0.0 0.00 0.01 0.00 84 1006.1
20260506102516 58 0.0 0.0 0.00 0.01 0.00 85 1006.0
20260506101516 57 0.0 0.0 0.00 0.01 0.00 86 1006.0
20260506100516 57 0.0 0.0 0.00 0.01 0.00 86 1006.2
20260506095537 56 0.0 0.0 0.00 0.01 0.00 87 1005.9
20260506094516 56 0.0 0.0 0.00 0.01 0.00 87 1006.3
20260506093516 55 0.0 0.0 0.00 0.01 0.00 88 1006.2
20260506092536 55 0.0 0.0 0.00 0.01 0.00 88 1006.2
20260506091518 55 0.0 0.0 0.00 0.01 0.00 88 1006.1
20260506090516 55 0.0 0.0 0.00 0.01 0.00 89 1006.2
20260506085516 55 0.0 0.0 0.00 0.01 0.00 89 1006.3
20260506084516 55 0.0 0.0 0.00 0.01 0.00 90 1006.2
20260506083516 55 0.0 0.0 0.00 0.01 0.00 89 1006.1
20260506082516 54 0.0 0.0 0.00 0.01 0.00 90 1006.2
20260506081516 54 0.0 0.0 0.00 0.01 0.00 92 1006.2
20260506080516 53 0.0 0.0 0.00 0.01 0.00 92 1006.2
20260506073516 53 0.0 0.0 0.00 0.01 0.00 92 1006.3
20260506072516 53 0.0 0.0 0.00 0.01 0.00 92 1006.3
20260506071556 53 0.0 0.0 0.00 0.01 0.00 92 1006.3
20260506070516 53 0.0 0.0 0.00 0.01 0.00 91 1006.3
20260506062516 53 0.0 0.0 0.00 0.01 0.00 93 1006.5
20260506061536 52 0.0 0.0 0.00 0.01 0.00 93 1006.6
20260506060516 52 0.0 0.0 0.00 0.01 0.00 93 1006.5
20260506050516 48 0.0 0.0 0.00 0.01 0.00 92 1006.6
20260506044516 47 0.0 0.0 0.00 0.01 0.00 91 1006.6
20260506043516 47 0.0 0.0 0.00 0.01 0.00 91 1006.6
20260506042516 47 0.0 0.0 0.00 0.01 0.00 91 1006.6
20260506041520 47 0.0 0.0 0.00 0.01 0.00 91 1006.8
20260506040516 47 0.0 0.0 0.00 0.01 0.00 91 1006.8
20260506035518 47 0.0 0.0 0.00 0.01 0.00 91 1007.0
20260506034516 47 0.0 0.0 0.00 0.01 0.00 90 1007.1
20260506033516 47 0.0 0.0 0.00 0.01 0.00 90 1007.1
20260506032516 48 0.0 0.0 0.00 0.01 0.00 90 1007.3
20260506031516 48 0.0 0.0 0.00 0.01 0.00 90 1007.3
20260506030516 48 0.0 0.0 0.00 0.01 0.00 90 1007.2
20260506025516 48 0.0 0.0 0.00 0.01 0.00 90 1007.5
20260506024516 48 0.0 0.0 0.00 0.01 0.00 90 1007.6
20260506023516 48 0.0 0.0 0.00 0.01 0.00 90 1007.6
20260506022516 48 0.0 0.0 0.00 0.01 0.00 90 1007.6
20260506021516 48 0.0 0.0 0.00 0.01 0.00 90 1007.5
20260506020536 48 0.0 0.0 0.00 0.01 0.00 90 1007.9
20260506015516 48 0.0 0.0 0.00 0.01 0.00 90 1007.9
20260506014536 48 0.0 0.0 0.00 0.01 0.00 89 1008.0
20260506013516 49 0.0 0.0 0.00 0.01 0.00 89 1008.2
20260506012516 49 0.0 0.0 0.00 0.01 0.00 89 1008.2
20260506011516 49 0.0 0.0 0.00 0.01 0.00 89 1008.3
20260506010516 49 0.0 0.0 0.00 0.01 0.00 89 1008.4
20260506005516 49 0.0 0.0 0.00 0.01 0.00 89 1008.4
20260506004536 49 0.0 0.0 0.00 0.01 0.00 89 1008.4
20260506003536 49 0.0 0.0 0.00 0.01 0.00 89 1008.5
20260506002516 49 0.0 0.0 0.00 0.01 0.00 88 1008.6
20260506001516 49 0.0 0.0 0.00 0.01 0.00 88 1008.5
20260506000516 49 0.0 0.0 0.00 0.01 0.00 88 1008.4
20260505235515 50 0.0 0.0 0.00 0.01 0.00 88 1008.3
20260505234536 50 0.0 0.0 0.00 0.01 0.00 88 1008.5
20260505233516 50 0.0 0.0 0.00 0.01 0.00 88 1008.6
20260505232516 50 0.0 0.0 0.00 0.01 0.00 88 1008.7
20260505231516 50 0.0 0.0 0.00 0.01 0.00 88 1008.7
20260505230516 50 0.0 0.0 0.00 0.01 0.00 88 1008.7
20260505225516 50 0.0 0.0 0.00 0.01 0.00 88 1008.7
20260505224556 50 0.0 0.0 0.00 0.01 0.00 87 1008.9
20260505223515 51 0.0 0.0 0.00 0.01 0.00 87 1009.0
20260505222516 51 0.0 0.0 0.00 0.01 0.00 87 1009.0
20260505221515 51 0.0 0.0 0.00 0.01 0.00 87 1009.0
20260505220516 51 0.0 0.0 0.00 0.01 0.00 87 1009.0
20260505215517 51 0.0 0.0 0.00 0.01 0.01 87 1009.1
20260505214516 52 0.0 0.0 0.00 0.01 0.01 86 1009.1
20260505213556 52 0.0 0.0 0.00 0.01 0.01 86 1009.1
20260505212516 52 0.0 0.0 0.00 0.01 0.01 86 1009.1
20260505211516 52 0.0 0.0 0.00 0.01 0.01 86 1009.1
20260505210516 52 0.0 0.0 0.00 0.01 0.01 85 1009.1
20260505205516 53 0.0 0.0 0.00 0.01 0.01 84 1009.2
20260505204516 53 0.0 0.0 0.00 0.01 0.01 84 1009.1
20260505203516 53 0.0 0.0 0.00 0.01 0.01 84 1009.0
20260505202516 54 0.0 0.0 0.00 0.01 0.01 84 1009.0
20260505201516 54 0.0 0.0 0.00 0.01 0.01 84 1009.0
20260505200516 54 0.0 0.0 0.00 0.01 0.01 83 1009.0
20260505195516 54 0.0 0.0 0.00 0.01 0.01 83 1009.0
20260505194516 54 0.0 0.0 0.01 0.01 0.01 82 1008.9
20260505193516 55 0.0 0.0 0.01 0.01 0.01 82 1008.8
20260505192516 55 0.0 0.0 0.01 0.01 0.01 81 1008.8
20260505191516 55 0.0 0.0 0.01 0.01 0.01 80 1008.7
20260505190516 55 0.0 0.0 0.01 0.01 0.01 80 1008.7
20260505185516 56 0.0 0.0 0.01 0.01 0.01 80 1008.8
20260505184516 56 0.0 0.0 0.00 0.00 0.00 79 1008.6
20260505183536 56 0.0 0.0 0.00 0.00 0.00 78 1008.7
20260505182556 57 0.0 0.0 0.00 0.00 0.00 77 1008.4
20260505181516 58 0.0 0.0 0.00 0.00 0.00 76 1008.1
20260505180516 58 0.0 0.0 0.00 0.00 0.00 75 1007.8
20260505175516 59 0.0 0.0 0.00 0.00 0.00 73 1007.9